Regional Weather Roundup
Issued by NWS Charleston, SC

Current Version | Previous Version | Graphics & Text | Print | Product List | Glossary On
Versions: 1 2 3 4 5 6 7 8 9 10 11 12 13 14 15 16 17 18 19 20 21 22 23 24 25 26 27 28 29 30 31 32 33 34 35 36 37 38 39 40 41 42 43 44 45 46 47 48 49 50
000
ASUS42 KCHS 102212
RWRCHS

REGIONAL WEATHER ROUNDUP
NATIONAL WEATHER SERVICE CHARLESTON SC
500 PM EST WED FEB 10 2016

NOTE: "FAIR" INDICATES FEW OR NO CLOUDS BELOW 12,000 FEET WITH NO
SIGNIFICANT WEATHER AND/OR OBSTRUCTIONS TO VISIBILITY.

NOT ALL STATIONS ARE QUALITY CONTROLLED BY THE NATIONAL
WEATHER SERVICE. USE DATA WITH CAUTION...ESPECIALLY
DEWPOINT OBSERVATIONS.

SCZ027-030-031-034>040-042>050-102300-
...SOUTHEAST SOUTH CAROLINA...

CITY           SKY/WX    TMP DP  RH WIND       PRES   REMARKS
N CHARLESTON   SUNNY     42   9  25 W20G26    30.04R
WATERFRONT PRK   N/A     42  14  32 W12       29.87R
MOUNT PLEASANT FAIR      43  14  31 W13G25    30.03R
JOHNS ISLAND   FAIR      43  14  31 W14G22    30.04R
PINOPOLIS        N/A     41  18  38 W21       29.94R
MONCKS CORNER  FAIR      37   9  30 W6G20     30.03R WCI  33
SUMMERVILLE    FAIR      41  14  33 W14G25    30.05R
BEAUFORT MCAS  SUNNY     42   9  25 W20G28    30.08R
BEAUFORT ARPT  FAIR      43  10  26 W22G30    30.07R HAZE
HILTON HEAD IS SUNNY     43  12  28 W14G25    30.09
WALTERBORO     CLEAR     43  10  26 W16G24    30.07R
ALLENDALE      FAIR      41  10  28 VRB6G20   30.07R

...SOUTHERN MIDLANDS AND PEE DEE...

CITY           SKY/WX    TMP DP  RH WIND       PRES   REMARKS
GEORGETOWN     NOT AVBL
KINGSTREE      NOT AVBL
ORANGEBURG     SUNNY     39   7  26 NW15G26   30.04R WCI  31
BARNWELL       FAIR      41  12  30 W13G20    30.07R
AIKEN          FAIR      36  10  35 W15G23    30.08R WCI  26
MANNING        FAIR      37  10  32 W9G22     30.03R WCI  31
COLUMBIA       MOSUNNY   39   7  26 W18       30.04R WCI  30
SUMTER         SUNNY     38   9  29 W20G26    30.00R WCI  29
FLORENCE       PTSUNNY   38  14  37 W13G21    29.99R WCI  30
MYRTLE BEACH   PTCLDY    39  16  38 MISG      30.00R
N MYRTLE BEACH MOCLDY    40  18  41 W14G23    29.98R WCI  32

$$

GAZ063-065-086>088-099>101-113>116-118-119-134>141-150-102300-
...SOUTHEAST GEORGIA...

CITY           SKY/WX    TMP DP  RH WIND       PRES   REMARKS
SAVANNAH ARPT  SUNNY     43  10  26 W18G32    30.11R
HUNTER AAF     SUNNY     44  11  27 W16G25    30.08R
FORT STEWART   SUNNY     44  13  29 W22G29    30.11R
STATESBORO     SUNNY     45  -2  14 W18       30.11R
SYLVANIA       CLEAR     42  17  35 NW17G25   30.10R
CLAXTON        FAIR      44  19  37 W17G24    30.13R

...CSRA...CENTRAL AND FAR SOUTHEAST GEORGIA...

CITY           SKY/WX    TMP DP  RH WIND       PRES   REMARKS
THOMSON        SUNNY     40  14  34 W21       30.12S WCI  31
AUGUSTA-BUSH   SUNNY     40   9  28 W22G28    30.09R WCI  30
AUGUSTA-DANIEL NOT AVBL
SWAINSBORO     FAIR      41  12  30 NW13G20   30.12R
VIDALIA        SUNNY     43  14  31 W14G24    30.14R
EASTMAN        FAIR      44  12  26 W7G17     30.17R
HAZLEHURST     FAIR      45  15  29 W8        30.15R
ALMA           SUNNY     44  15  31 W14       30.16R
WAYCROSS       SUNNY     47  19  31 NW17G23   30.17R
JESUP          FAIR      46  21  36 NW13G21   30.15R
BAXLEY         FAIR      45  14  29 W15G22    30.15R
BRUNSWICK      SUNNY     46  16  29 W17G26    30.14R
SAINT SIMONS   SUNNY     45  14  28 W16G24    30.13R

$$

SCZ027-028-034-036>038-045-046-048>050-GAZ119-141-102300-
...LAKE AND SUPPLEMENTAL COASTAL OBSERVATIONS...

STATION/POSITION TIME  TEMP    WIND        PRES    WAVE   SWELL
                       AIR SEA DIR/SP/G            HT/PER HT/PER/DIR
                 (UTC) (F)     (DEG/KT/KT) (MB)    (FT/S) (FT/S/D)
WINYAH BAY       NOT AVBL
LAKE MURRAY      2100   37     270/ 15/ 24 1015.6R
ACE BASIN NERRS  NOT AVBL
FORT PULASKI     2100   42 50  270/ 23/ 26 1018.5R
SAPELO ISLAND    2100   45     280/ 19     1019.0S

$$

ANZ835-935-AMZ111-154-330-350-352-354-370-450-454-472-102300-
...C-MAN AND BUOY OBSERVATIONS...

STATION/POSITION TIME  TEMP    WIND        PRES    WAVE   SWELL
                       AIR SEA DIR/SP/G            HT/PER HT/PER/DIR
                 (UTC) (F)     (DEG/KT/KT) (MB)    (FT/S) (FT/S/D)
BUOY 41004       2150   44 63  270/ 25/ 35 1015.6R   7/ 7   2/15
BUOY 41008       2150   45 53  290/ 21/ 27 1019.7R   4/ 5
FOLLY BEACH CMAN 2200   42     270/  9/ 15 1017.3R
CAPERS NEARSHORE 2108   43     300/ 19/ 27 1015.5R
FRIPP NEARSHORE  2100   44     290/ 19/ 25 1017.1R


STATION/POSITION TIME  TEMP    WIND        PRES    WAVE   SWELL
                       AIR SEA DIR/SP/G            HT/PER HT/PER/DIR
                 (UTC) (F)     (DEG/KT/KT) (MB)    (FT/S) (FT/S/D)
5E ST. MARYS GA  2121      55                N/A     3/15   2/ 80/15
FRYING PAN BUOY  2100   42 59  270/ 21/ 29 1014.0R
BUOY 41025       2150   42 72  290/ 16/ 21 1011.4R   6/13   3/ 60/13
CAPE LOOKOUT NC  NOT AVBL
BUOY 41002       2150   56 68  260/ 29/ 37   N/A    15/11  11/260/11
BUOY 41010       2120   59 72              1019.2R
ST AUGUSTINE FL  2200   53 56  280/  7/ 10 1021.3R


$$



USA.gov is the U.S. government's official web portal to all federal, state and local government web resources and services.